Location: Eisingen in Unterfranken
(49.7591°N, 9.8347°E)
Time: 14:24:19
(UTC+01:00)

N. Korean satellite - Pass Details

Date: 03 December 2022
Orbit: 407 x 441 km, 97.3° (Epoch: 05 February)

Event Time Altitude Azimuth Distance (km) Brightness Sun altitude
Rises 05:01:29 0° 23° (NNE) 2,529 10.5 -27.7°
Reaches altitude 10° 05:03:50 10° 38° (NE) 1,642 9.6 -27.3°
Maximum altitude 05:06:47 25° 94° (E) 997 8.8 -26.8°
Drops below altitude 10° 05:09:41 10° 151° (SSE) 1,612 9.6 -26.3°
Sets 05:11:58 0° 165° (SSE) 2,471 10.4 -26.0°
